Change the Weather History Date:

Wednesday, August 22, 2012

  Actual Average Record
Temperature  
Mean Temperature 88 °F -  
Max Temperature 98 °F 83 °F 104 °F (1999)
Min Temperature 78 °F 66 °F 68 °F (2002)
Cooling Degree Days 23    
Growing Degree Days 38 (Base 50)    
Moisture  
Dew Point 49 °F    
Average Humidity 25    
Maximum Humidity 39    
Minimum Humidity 17    
Precipitation  
Precipitation 0.00 in - - ()
Sea Level Pressure  
Sea Level Pressure 29.92 in    
Wind  
Wind Speed 12 mph ()    
Max Wind Speed 17 mph    
Max Gust Speed -    
Averages and records for this station are not official NWS values.
T = Trace of Precipitation, MM = Missing Value Source: Averaged Metar Reports

Daily Weather History Graph

Daily Weather History Graph

Search for Another Location

Airport or City:

Trip Planner

Search our weather history database for the weather conditions in past years. The results will help you decide how hot, cold, wet, or windy it might be!

Date:

Astronomy

Aug. 22, 2012 Rise Set
Actual Time 6:47 AM EEST 8:09 PM EEST
Civil Twilight 6:19 AM EEST 8:36 PM EEST
Nautical Twilight 5:46 AM EEST 9:09 PM EEST
Astronomical Twilight 5:11 AM EEST 9:44 PM EEST
Moon 11:58 AM EEST (8/22) 10:44 PM EEST (8/22)
Length of Visible Light 14h 17m
Length of Day
13h 22m
Waxing Crescent, 26% of the Moon is Illuminated
Aug 22
Waxing Crescent
Aug 24
First Quarter
Aug 31
Full
Sep 8
Last Quarter
Sep 16
New

Hourly Weather History & Observations

Time (EEST) Temp. Heat Index Dew Point Humidity Pressure Visibility Wind Dir Wind Speed Gust Speed Precip Events Conditions
12:50 AM 78.8 °F - 51.8 °F 39% 29.95 in - NW 6.9 mph - N/A   Clear
1:50 AM 80.6 °F - 51.8 °F 37% 29.95 in - NNW 5.8 mph - N/A   Clear
2:50 AM 80.6 °F - 51.8 °F 37% 29.95 in - NNW 10.4 mph - N/A   Clear
3:50 AM 80.6 °F - 51.8 °F 37% 29.92 in - North 12.7 mph - N/A   Clear
4:50 AM 82.4 °F - 51.8 °F 35% 29.92 in - NNW 16.1 mph - N/A   Clear
5:50 AM 82.4 °F - 51.8 °F 35% 29.92 in - NNW 15.0 mph - N/A   Clear
6:20 AM 82.4 °F - 51.8 °F 35% 29.92 in - North 17.3 mph - N/A   Clear
6:50 AM 82.4 °F - 51.8 °F 35% 29.92 in - North 15.0 mph - N/A   Clear
7:20 AM 82.4 °F - 51.8 °F 35% 29.92 in - North 13.8 mph - N/A   Clear
7:50 AM 82.4 °F - 51.8 °F 35% 29.92 in - NNW 16.1 mph - N/A   Clear
8:20 AM 84.2 °F - 51.8 °F 33% 29.92 in - North 17.3 mph - N/A   Clear
8:50 AM 86.0 °F - 51.8 °F 31% 29.92 in - NNW 17.3 mph - N/A   Clear
9:20 AM 87.8 °F 85.7 °F 53.6 °F 31% 29.92 in - NNW 16.1 mph - N/A   Clear
9:50 AM 89.6 °F - 51.8 °F 27% 29.92 in - NNW 17.3 mph - N/A   Clear
10:20 AM 89.6 °F 87.7 °F 55.4 °F 31% 29.92 in - NNW 16.1 mph - N/A   Clear
10:50 AM 93.2 °F - 51.8 °F 24% 29.92 in - North 15.0 mph - N/A   Clear
11:20 AM 93.2 °F - 50.0 °F 23% 29.92 in - North 13.8 mph - N/A   Clear
11:50 AM 96.8 °F - 50.0 °F 20% 29.92 in - North 16.1 mph - N/A   Clear
12:20 PM 96.8 °F - 50.0 °F 20% 29.92 in - North 15.0 mph - N/A   Clear
12:50 PM 98.6 °F - 48.2 °F 18% 29.92 in - North 13.8 mph - N/A   Clear
1:20 PM 98.6 °F - 48.2 °F 18% 29.92 in - North 16.1 mph - N/A   Clear
1:50 PM 98.6 °F - 48.2 °F 18% 29.92 in - North 15.0 mph - N/A   Clear
2:20 PM 98.6 °F - 48.2 °F 18% 29.92 in - North 13.8 mph - N/A   Clear
2:50 PM 98.6 °F - 46.4 °F 17% 29.92 in - North 13.8 mph - N/A   Clear
3:20 PM 98.6 °F - 46.4 °F 17% 29.92 in - North 13.8 mph - N/A   Clear
3:50 PM 98.6 °F - 46.4 °F 17% 29.89 in - North 13.8 mph - N/A   Clear
4:20 PM 98.6 °F - 46.4 °F 17% 29.89 in - North 13.8 mph - N/A   Clear
4:50 PM 98.6 °F - 46.4 °F 17% 29.89 in - NNE 16.1 mph - N/A   Clear
5:20 PM 98.6 °F - 46.4 °F 17% 29.89 in - North 16.1 mph - N/A   Clear
5:50 PM 98.6 °F - 48.2 °F 18% 29.89 in - North 13.8 mph - N/A   Clear
6:20 PM 98.6 °F - 48.2 °F 18% 29.89 in - North 13.8 mph - N/A   Clear
6:50 PM 96.8 °F - 46.4 °F 18% 29.89 in - NNW 11.5 mph - N/A   Clear
7:20 PM 95.0 °F - 48.2 °F 20% 29.89 in - NW 9.2 mph - N/A   Clear
7:50 PM 93.2 °F - 48.2 °F 21% 29.92 in - North 6.9 mph - N/A   Clear
8:20 PM 91.4 °F - 46.4 °F 21% 29.92 in - North 6.9 mph - N/A   Clear
8:50 PM 91.4 °F - 48.2 °F 23% 29.92 in - NNW 9.2 mph - N/A   Clear
9:20 PM 89.6 °F - 46.4 °F 22% 29.95 in - NNW 10.4 mph - N/A   Clear
9:50 PM 87.8 °F - 46.4 °F 24% 29.95 in - NNW 8.1 mph - N/A   Clear
10:20 PM 87.8 °F - 46.4 °F 24% 29.95 in - North 8.1 mph - N/A   Clear
10:50 PM 87.8 °F - 46.4 °F 24% 29.95 in - North 8.1 mph - N/A   Clear
11:20 PM 86.0 °F - 44.6 °F 23% 29.95 in - NNW 11.5 mph - N/A   Clear
11:50 PM 86.0 °F - 44.6 °F 23% 29.95 in - NNW 12.7 mph - N/A   Clear